Siren, WI

4:11 PM CST on February 24, 2017 (GMT -0600)
Burnett County

Weather History for KRZN - November, 2011

Change the Weather History Date:

Sunday, November 20, 2011

  Actual Average Record
Temperature  
Mean Temperature 15 °F -  
Max Temperature 22 °F - - ()
Min Temperature 8 °F - - ()
Degree Days  
Heating Degree Days 50    
Moisture  
Dew Point 14 °F    
Average Humidity 84    
Maximum Humidity 93    
Minimum Humidity 77    
Precipitation  
Precipitation 0.00 in - - ()
Sea Level Pressure  
Sea Level Pressure 30.29 in    
Wind  
Wind Speed 5 mph (North)    
Max Wind Speed 9 mph    
Max Gust Speed -    
Visibility 10 miles    
Events Fog    
Averages and records for this station are not official NWS values.
T = Trace of Precipitation, MM = Missing Value Source: NWS Daily Summary

Daily Weather History Graph

Daily Weather History Graph

Search for Another Location

Airport or City:

Trip Planner

Search our weather history database for the weather conditions in past years. The results will help you decide how hot, cold, wet, or windy it might be!

Date:

Astronomy

Nov. 20, 2011 Rise Set
Actual Time 7:15 AM CST 4:33 PM CST
Civil Twilight 6:43 AM CST 5:06 PM CST
Nautical Twilight 6:06 AM CST 5:42 PM CST
Astronomical Twilight 5:31 AM CST 6:18 PM CST
Moon 1:29 AM CST (11/20) 1:36 PM CST (11/20)
Length of Visible Light 10h 23m
Length of Day
9h 17m
Waning Crescent, 27% of the Moon is Illuminated
Nov 20
Waning Crescent
Nov 25
New
Dec 2
First Quarter
Dec 10
Full
Dec 17
Last Quarter

Hourly Weather History & Observations

Time (CST) Temp. Windchill Dew Point Humidity Pressure Visibility Wind Dir Wind Speed Gust Speed Precip Events Conditions
12:15 AM 21.6 °F 12.1 °F 17.1 °F 83% 30.13 in 10.0 mi North 8.1 mph - N/A   Overcast
12:35 AM 21.4 °F 11.1 °F 16.7 °F 82% 30.14 in 10.0 mi North 9.2 mph - N/A   Overcast
12:55 AM 21.0 °F 10.6 °F 16.5 °F 83% 30.14 in 10.0 mi NNE 9.2 mph - N/A   Overcast
1:15 AM 20.7 °F 10.2 °F 16.0 °F 82% 30.15 in 10.0 mi NNE 9.2 mph - N/A   Overcast
1:35 AM 20.3 °F 9.8 °F 15.6 °F 82% 30.17 in 10.0 mi NNE 9.2 mph - N/A   Overcast
1:55 AM 20.1 °F 11.3 °F 15.4 °F 82% 30.18 in 10.0 mi North 6.9 mph - N/A   Overcast
2:15 AM 20.1 °F 11.3 °F 15.4 °F 82% 30.19 in 10.0 mi North 6.9 mph - N/A   Overcast
2:35 AM 19.9 °F 11.1 °F 15.4 °F 83% 30.21 in 10.0 mi North 6.9 mph - N/A   Overcast
2:55 AM 19.6 °F 10.6 °F 15.3 °F 83% 30.21 in 10.0 mi North 6.9 mph - N/A   Overcast
3:15 AM 19.2 °F 10.2 °F 15.1 °F 84% 30.20 in 10.0 mi North 6.9 mph - N/A   Overcast
3:35 AM 18.7 °F 10.6 °F 14.5 °F 84% 30.19 in 10.0 mi North 5.8 mph - N/A   Overcast
3:55 AM 18.5 °F 9.3 °F 14.5 °F 85% 30.20 in 10.0 mi North 6.9 mph - N/A   Overcast
4:15 AM 18.7 °F 11.9 °F 14.5 °F 84% 30.22 in 10.0 mi NNE 4.6 mph - N/A   Overcast
4:35 AM 18.5 °F 13.3 °F 14.4 °F 84% 30.22 in 10.0 mi North 3.5 mph - N/A   Overcast
4:55 AM 18.5 °F - 14.5 °F 85% 30.22 in 10.0 mi Calm Calm - N/A   Overcast
5:15 AM 18.5 °F 13.3 °F 14.7 °F 85% 30.23 in 10.0 mi North 3.5 mph - N/A   Overcast
5:35 AM 18.5 °F 10.4 °F 14.7 °F 85% 30.25 in 10.0 mi NNW 5.8 mph - N/A   Overcast
5:55 AM 18.1 °F 12.9 °F 14.2 °F 84% 30.26 in 10.0 mi NNW 3.5 mph - N/A   Overcast
6:55 AM 17.4 °F 12.1 °F 13.6 °F 85% 30.28 in 10.0 mi North 3.5 mph - N/A   Overcast
7:15 AM 17.4 °F - 13.6 °F 85% 30.27 in 10.0 mi Calm Calm - N/A   Overcast
7:35 AM 17.6 °F - 13.6 °F 84% 30.28 in 10.0 mi Calm Calm - N/A   Overcast
7:55 AM 17.6 °F 10.7 °F 13.5 °F 84% 30.29 in 10.0 mi NE 4.6 mph - N/A   Overcast
8:15 AM 17.6 °F 12.3 °F 13.3 °F 83% 30.29 in 10.0 mi NE 3.5 mph - N/A   Overcast
8:35 AM 17.6 °F - 13.3 °F 83% 30.30 in 10.0 mi Calm Calm - N/A   Overcast
8:55 AM 17.8 °F - 13.6 °F 84% 30.31 in 10.0 mi Calm Calm - N/A   Overcast
9:15 AM 18.3 °F 11.5 °F 14.0 °F 83% 30.33 in 10.0 mi North 4.6 mph - N/A   Overcast
9:35 AM 18.5 °F 11.7 °F 14.2 °F 83% 30.34 in 10.0 mi North 4.6 mph - N/A   Overcast
9:55 AM 18.5 °F - 14.0 °F 83% 30.35 in 10.0 mi Calm Calm - N/A   Overcast
10:15 AM 18.7 °F - 14.2 °F 83% 30.35 in 10.0 mi Calm Calm - N/A   Overcast
10:55 AM 19.4 °F - 14.4 °F 81% 30.36 in 10.0 mi Calm Calm - N/A   Overcast
11:15 AM 19.9 °F - 14.7 °F 80% 30.36 in 10.0 mi Calm Calm - N/A   Overcast
11:35 AM 20.7 °F - 15.1 °F 79% 30.35 in 10.0 mi Calm Calm - N/A   Overcast
11:55 AM 21.2 °F - 15.4 °F 78% 30.35 in 10.0 mi Calm Calm - N/A   Overcast
12:15 PM 21.4 °F - 15.6 °F 78% 30.35 in 10.0 mi Calm Calm - N/A   Overcast
12:55 PM 21.7 °F 17.0 °F 16.5 °F 80% 30.34 in 10.0 mi WNW 3.5 mph - N/A   Overcast
1:15 PM 22.1 °F 14.7 °F 16.5 °F 79% 30.34 in 10.0 mi WNW 5.8 mph - N/A   Overcast
1:55 PM 21.6 °F 16.8 °F 15.6 °F 78% 30.34 in 10.0 mi West 3.5 mph - N/A   Overcast
2:15 PM 21.4 °F 13.8 °F 15.3 °F 77% 30.34 in 10.0 mi WNW 5.8 mph - N/A   Overcast
2:35 PM 21.0 °F - 14.9 °F 77% 30.33 in 10.0 mi Calm Calm - N/A   Overcast
2:55 PM 21.0 °F - 14.9 °F 77% 30.33 in 10.0 mi Calm Calm - N/A   Overcast
3:15 PM 21.2 °F - 14.9 °F 77% 30.33 in 10.0 mi Calm Calm - N/A   Overcast
3:35 PM 21.0 °F - 14.9 °F 77% 30.33 in 10.0 mi Calm Calm - N/A   Overcast
3:55 PM 20.3 °F - 14.5 °F 78% 30.33 in 10.0 mi Calm Calm - N/A   Overcast
4:15 PM 19.6 °F - 14.4 °F 80% 30.33 in 10.0 mi Calm Calm - N/A   Overcast
4:35 PM 19.0 °F - 14.5 °F 83% 30.33 in 10.0 mi Calm Calm - N/A   Mostly Cloudy
4:55 PM 18.0 °F - 14.5 °F 86% 30.33 in 10.0 mi Calm Calm - N/A   Mostly Cloudy
5:15 PM 16.5 °F - 14.0 °F 90% 30.33 in 10.0 mi Calm Calm - N/A   Overcast
5:35 PM 14.4 °F - 12.6 °F 93% 30.34 in 10.0 mi Calm Calm - N/A   Mostly Cloudy
6:15 PM 11.3 °F - 9.3 °F 92% 30.33 in 0.5 mi Calm Calm - N/A Fog Light Freezing Fog
6:35 PM 10.0 °F - 7.7 °F 90% 30.33 in 5.0 mi Calm Calm - N/A   Scattered Clouds
6:55 PM 9.0 °F - 7.0 °F 92% 30.33 in 0.8 mi Calm Calm - N/A   Overcast
7:15 PM 10.0 °F - 7.9 °F 91% 30.32 in 7.0 mi Calm Calm - N/A   Overcast
7:35 PM 8.8 °F - 6.4 °F 90% 30.32 in 10.0 mi Calm Calm - N/A   Overcast
7:55 PM 8.6 °F - 6.3 °F 90% 30.32 in 10.0 mi Calm Calm - N/A   Overcast
8:15 PM 9.3 °F - 7.2 °F 91% 30.32 in 10.0 mi Calm Calm - N/A   Overcast
8:35 PM 10.6 °F - 8.6 °F 92% 30.32 in 10.0 mi Calm Calm - N/A   Overcast
8:55 PM 11.1 °F - 9.0 °F 91% 30.31 in 10.0 mi Calm Calm - N/A   Overcast
9:15 PM 11.7 °F 3.7 °F 9.9 °F 92% 30.31 in 10.0 mi SSW 4.6 mph - N/A   Overcast
9:35 PM 15.8 °F 10.2 °F 14.4 °F 94% 30.30 in 10.0 mi South 3.5 mph - N/A   Mostly Cloudy
9:55 PM 15.6 °F 7.0 °F 14.0 °F 93% 30.30 in 10.0 mi SSW 5.8 mph - N/A   Scattered Clouds
10:15 PM 15.6 °F 8.3 °F 14.0 °F 93% 30.29 in 10.0 mi South 4.6 mph - N/A   Clear
10:35 PM 15.3 °F 9.6 °F 13.6 °F 93% 30.30 in 10.0 mi SSW 3.5 mph - N/A   Clear
10:55 PM 14.9 °F 9.2 °F 13.1 °F 93% 30.30 in 10.0 mi South 3.5 mph - N/A   Clear
11:15 PM 14.7 °F 7.3 °F 12.9 °F 93% 30.30 in 10.0 mi South 4.6 mph - N/A   Scattered Clouds
11:35 PM 12.9 °F 6.9 °F 10.8 °F 91% 30.30 in 10.0 mi South 3.5 mph - N/A   Scattered Clouds
11:55 PM 15.3 °F 7.9 °F 14.0 °F 95% 30.30 in 10.0 mi South 4.6 mph - N/A   Mostly Cloudy